TimeCST,TemperatureF,Dew PointF,Humidity,Sea Level PressureIn,VisibilityMPH,Wind Direction,Wind SpeedMPH,Gust SpeedMPH,PrecipitationIn,Events,Conditions,WindDirDegrees,DateUTC
12:49 AM,44.6,39.2,81,29.88,4.0,East,9.2,19.6,N/A,,Haze,100,2012-11-10 06:49:00
12:53 AM,45.0,39.9,82,29.90,3.0,East,10.4,18.4,0.00,Rain,Light Rain,100,2012-11-10 06:53:00
1:53 AM,45.0,39.9,82,29.88,4.0,East,9.2,-,0.00,,Haze,90,2012-11-10 07:53:00
2:53 AM,45.0,39.9,82,29.85,5.0,East,10.4,24.2,N/A,,Haze,90,2012-11-10 08:53:00
3:53 AM,45.0,39.9,82,29.81,5.0,East,10.4,20.7,N/A,,Haze,100,2012-11-10 09:53:00
4:53 AM,44.1,41.0,89,29.78,5.0,East,9.2,-,0.00,Rain,Light Rain,100,2012-11-10 10:53:00
5:18 AM,44.6,41.0,87,29.77,1.8,East,12.7,-,0.21,Rain-Thunderstorm,Heavy Thunderstorms and Rain,100,2012-11-10 11:18:00
5:25 AM,42.8,42.8,100,29.77,1.8,Variable,6.9,20.7,0.23,Rain-Thunderstorm,Light Thunderstorms and Rain,0,2012-11-10 11:25:00
5:28 AM,42.8,42.8,100,29.77,3.0,East,9.2,20.7,0.23,Rain-Thunderstorm,Light Thunderstorms and Rain,100,2012-11-10 11:28:00
5:53 AM,44.1,42.1,93,29.77,2.5,East,12.7,18.4,0.23,,Overcast,100,2012-11-10 11:53:00
6:51 AM,44.6,42.8,93,29.73,1.8,East,11.5,-,0.01,Rain,Light Rain,100,2012-11-10 12:51:00
6:53 AM,44.1,42.1,93,29.75,2.0,East,11.5,-,0.01,Rain,Light Rain,100,2012-11-10 12:53:00
7:38 AM,44.6,42.8,93,29.72,1.8,East,11.5,-,0.00,,Overcast,100,2012-11-10 13:38:00
7:45 AM,44.6,42.8,93,29.72,2.0,ESE,10.4,-,0.00,,Overcast,110,2012-11-10 13:45:00
7:53 AM,45.0,43.0,93,29.74,2.0,ESE,11.5,16.1,0.00,,Overcast,110,2012-11-10 13:53:00
8:53 AM,45.0,44.1,97,29.71,1.5,East,10.4,17.3,0.00,Rain,Light Rain,100,2012-11-10 14:53:00
9:53 AM,46.0,45.0,96,29.67,1.2,East,9.2,-,0.01,Rain,Light Rain,100,2012-11-10 15:53:00
10:53 AM,48.0,46.0,93,29.64,1.5,ESE,9.2,-,0.00,,Overcast,120,2012-11-10 16:53:00
11:53 AM,48.9,46.9,93,29.60,1.5,ESE,9.2,-,N/A,,Overcast,110,2012-11-10 17:53:00
12:19 PM,50.0,48.2,94,29.56,1.8,ESE,8.1,-,N/A,,Overcast,110,2012-11-10 18:19:00
12:46 PM,51.8,48.2,88,29.56,2.0,ESE,6.9,-,N/A,,Overcast,110,2012-11-10 18:46:00
12:53 PM,52.0,48.9,89,29.56,2.0,East,9.2,-,N/A,,Overcast,100,2012-11-10 18:53:00
1:16 PM,55.4,50.0,82,29.54,2.5,ESE,8.1,-,N/A,,Haze,120,2012-11-10 19:16:00
1:28 PM,55.4,51.8,88,29.54,3.0,ESE,6.9,-,N/A,,Mostly Cloudy,110,2012-11-10 19:28:00
1:45 PM,57.2,51.8,82,29.53,3.0,East,9.2,-,N/A,,Haze,100,2012-11-10 19:45:00
1:53 PM,57.9,52.0,81,29.53,4.0,East,8.1,-,N/A,,Haze,100,2012-11-10 19:53:00
2:53 PM,62.1,54.0,75,29.50,5.0,ESE,8.1,-,N/A,,Haze,110,2012-11-10 20:53:00
3:53 PM,64.9,55.0,70,29.50,8.0,ESE,5.8,-,N/A,,Clear,110,2012-11-10 21:53:00
4:53 PM,64.0,55.0,73,29.49,10.0,ESE,4.6,-,N/A,,Clear,120,2012-11-10 22:53:00
5:53 PM,55.9,53.1,90,29.49,10.0,East,3.5,-,N/A,,Partly Cloudy,100,2012-11-10 23:53:00
6:21 PM,55.4,51.8,88,29.49,10.0,ESE,4.6,-,0.00,Thunderstorm,Thunderstorm,120,2012-11-11 00:21:00
6:46 PM,57.2,53.6,88,29.49,9.0,SE,5.8,-,0.01,,Overcast,140,2012-11-11 00:46:00
6:53 PM,62.1,54.0,75,29.49,10.0,SE,9.2,-,0.01,,Overcast,140,2012-11-11 00:53:00
7:53 PM,64.9,54.0,68,29.46,10.0,SSE,10.4,-,N/A,,Overcast,150,2012-11-11 01:53:00
8:53 PM,64.0,54.0,70,29.44,10.0,SSE,9.2,-,N/A,,Partly Cloudy,150,2012-11-11 02:53:00
9:53 PM,66.0,55.9,70,29.45,10.0,South,16.1,26.5,N/A,,Scattered Clouds,180,2012-11-11 03:53:00
10:27 PM,60.8,51.8,72,29.48,10.0,WNW,15.0,26.5,N/A,,Overcast,300,2012-11-11 04:27:00
11:06 PM,55.4,48.2,77,29.53,7.0,West,16.1,21.9,0.01,Rain-Thunderstorm,Light Rain,270,2012-11-11 05:06:00
11:11 PM,53.6,48.2,82,29.52,1.8,West,5.8,21.9,0.18,Rain-Thunderstorm,Heavy Rain,260,2012-11-11 05:11:00
11:15 PM,53.6,48.2,82,29.52,1.0,West,6.9,21.9,0.23,Rain,Heavy Rain,260,2012-11-11 05:15:00
11:21 PM,53.6,48.2,82,29.50,1.5,NNW,4.6,-,0.24,Rain-Thunderstorm,Rain,330,2012-11-11 05:21:00
11:24 PM,51.8,50.0,94,29.49,3.0,North,3.5,-,0.24,Rain-Thunderstorm,Light Rain,350,2012-11-11 05:24:00
11:41 PM,51.8,50.0,94,29.51,4.0,SSE,3.5,-,0.26,Rain,Light Rain,160,2012-11-11 05:41:00
11:53 PM,52.0,50.0,93,29.49,4.0,ESE,6.9,-,0.29,Rain,Rain,120,2012-11-11 05:53:00